Regional Weather Roundup
Issued by NWS Wilmington, NC

Home | Current Version | Previous Version | Text Only | Print | Product List | Glossary On
Versions: 1 2 3 4 5 6 7 8 9 10 11 12 13 14 15 16 17 18 19 20 21 22 23 24 25 26 27 28 29 30 31 32 33 34 35 36 37 38 39 40 41 42 43 44 45 46 47 48 49 50
567
ASUS42 KILM 191213
RWRILM
RWRILM
REGIONAL HOURLY WEATHER ROUNDUP
NATIONAL WEATHER SERVICE WILMINGTON NC
700 AM EST MON FEB 19 2018

NOTE: "FAIR" INDICATES FEW OR NO CLOUDS BELOW 12,000 FEET WITH NO
SIGNIFICANT WEATHER AND/OR OBSTRUCTIONS TO VISIBILITY.

...............WFO WILMINGTON COUNTY WARNING AREA...............

......COASTAL NC AND SC COUNTIES......

CITY           SKY/WX    TMP DP  RH WIND       PRES   REMARKS
WILMINGTON     CLOUDY    54  51  90 E5        30.41R
N MYRTLE BEACH CLOUDY    53  50  89 N5        30.39R
MYRTLE BEACH   NOT AVBL

......INLAND NC AND SC COUNTIES.......

CITY           SKY/WX    TMP DP  RH WIND       PRES   REMARKS
LUMBERTON      CLOUDY    46  46 100 NE6       30.43R FOG
ELIZABETHTOWN  NOT AVBL
WHITEVILLE     CLOUDY    49  47  94 NE3       30.41R FOG
FLORENCE       FOG       49  48  97 NE6       30.42R VSB 1/2
DARLINGTON     CLOUDY    48  47  96 NE7       30.43R FOG
KINGSTREE      CLOUDY    50  48  93 CALM      30.40R
HARTSVILLE     FOG       46  46 100 N5        30.42R VSB 1
BENNETTSVILLE  CLOUDY    50  50 100 NE7       30.43R FOG
CONWAY         CLOUDY    50  48  93 N3        30.40S FOG
GEORGETOWN     CLOUDY    54  54 100 NE3       30.39S
MARION         CLOUDY    46  46 100 NE5       30.42R FOG

....................REST OF NORTH CAROLINA......................

.........EASTERN NC.........

CITY           SKY/WX    TMP DP  RH WIND       PRES   REMARKS
CAPE HATTERAS  CLOUDY    57  52  83 E8        30.45R
JACKSONVILLE   CLOUDY    50  45  83 N6        30.44R
MOREHEAD CITY  CLOUDY    53  49  86 NE5       30.43R
KENANSVILLE    CLOUDY    48  43  81 CALM      30.44R
NEW BERN       CLOUDY    50  46  86 E7        30.44S
ELIZABETH CITY CLOUDY    48  45  89 E7        30.48R

.........CENTRAL NC.........

CITY           SKY/WX    TMP DP  RH WIND       PRES   REMARKS
RALEIGH DURHAM LGT RAIN  41  40  96 CALM      30.45R FOG
ROCKY MOUNT    LGT RAIN  43  42  97 CALM      30.45S FOG
ROANOKE RAPIDS NOT AVBL
FAYETTEVILLE   CLOUDY    45  44  97 NE7       30.43R
HOFFMAN        CLOUDY    45  45 100 N6        30.44R

.........WESTERN NC.........

CITY           SKY/WX    TMP DP  RH WIND       PRES   REMARKS
CHARLOTTE      CLOUDY    51  50  96 E6        30.41F FOG
GREENSBORO     CLOUDY    45  45 100 SE5       30.42S FOG
HICKORY        NOT AVBL
BOONE          NOT AVBL
ASHEVILLE      NOT AVBL

.....................REST OF SOUTH CAROLINA.....................

.........EASTERN SC.........

CITY           SKY/WX    TMP DP  RH WIND       PRES   REMARKS
CHARLESTON     CLOUDY    58  56  93 NE3       30.37R
BEAUFORT MCAS  CLOUDY    60  60 100 NE5       30.37R FOG
HILTON HEAD    FOG       59  57  94 N6        30.36R VSB 1/4

.........CENTRAL SC.........

CITY           SKY/WX    TMP DP  RH WIND       PRES   REMARKS
COLUMBIA       CLOUDY    57  51  80 NE7       30.38S
ORANGEBURG     CLOUDY    56  52  86 NE6       30.38R
SUMTER SHAW    CLOUDY    51  49  93 N8        30.38S

.........WESTERN SC.........

CITY           SKY/WX    TMP DP  RH WIND       PRES   REMARKS
GREENVILLE     NOT AVBL
ROCK HILL      CLOUDY    51  51 100 E3        30.41S FOG
ANDERSON       CLOUDY    53  53 100 E7        30.38R FOG
CLEMSON        NOT AVBL
GREENWOOD      CLOUDY    53  52  96 NE5       30.40R


...................COASTAL AND OFFSHORE REPORTS..................

................LOCAL PIERS AND NC RESERVE................


STATION/POSITION TIME  SKY/WX   TEMP    WIND        PRES    VSBY
                                AIR SEA DIR/SP/G
                 (UTC)          (F)     (DEG/KT/KT) (MB)    (MI)
JOHNY MRCER PIER 1136            53 55   10/  6/  7 1029.6S
NC RESRV MASNBRO NOT AVBL
OCEAN CREST PIER NOT AVBL
SPRINGMAID  PIER 1136                               1032.1R


................COASTAL AND OFFSHORE BUOYS................


STATION/POSITION TIME  SKY/WX   TEMP    WIND        PRES    VSBY
                                AIR SEA DIR/SP/G
                 (UTC)          (F)     (DEG/KT/KT) (MB)    (MI)
DIMNDSHOAL 41025 1150            65 72  130/ 17/ 23 1031.3S
WVE H/P(F/S)=  5/ 9 SWL H/P/D(F/S/D)=  3/ 60/ 9

CAPE LOOKOUT     1200                   110/ 12/ 13 1030.3R
ONSLOW BAY 41036 NOT AVBL
ONSLOW BAY 41064 1108            65 63  140/ 12/ 16 1029.4R
ONSLOW BAY 41159 1200               64                N/A
WVE H/P(F/S)=  5/ 5

MASNBO INL 41110 1159               53                N/A
WVE H/P(F/S)=  4/ 5

WILM HARBR 41108 1200               54                N/A
WVE H/P(F/S)=  4/ 6

27SE WRITB 41037 1108            67 68  120/ 14/ 21 1029.0R
FRYING PAN 41013 1200            69 66  140/  8/  8 1028.7
SUNST NRSH 41024 1108            54 54   20/  6/  8 1028.9R
CAPRS NRSH 41029 1108            52 56   40/ 12/ 19 1027.4R
EDISTO     41004 1200            69 67  160/ 12/ 16 1027.5


..........OFFSHORE BUOYS BEYOND 100 NM OFFSHORE...........
.....IN A TRIANGLE---HAT TO BERMUDA TO BAHAMAS TO HAT.....


STATION/POSITION TIME  SKY/WX   TEMP    WIND        PRES    VSBY
                                AIR SEA DIR/SP/G
                 (UTC)          (F)     (DEG/KT/KT) (MB)    (MI)
150E HAT   41001 NOT AVBL
W BERMUDA  41048 1200            67 70   70/ 14/ 19 1031.7
ATLANTIC S 41049 1150            74 75   40/ 10/ 12 1028.4R
WVE H/P(F/S)=  5/ 9 SWL H/P/D(F/S/D)=  5/330/ 9

E BAHAMAS  41046 1200            75 78  100/ 16/ 19 1025.6
NE BAHAMAS 41047 1150                    90/ 14/ 16 1028.1R
WVE H/P(F/S)=  4/ 8 SWL H/P/D(F/S/D)=  3/ 70/ 8

120E CANVRL41010 NOT AVBL

END




USA.gov is the U.S. government's official web portal to all federal, state and local government web resources and services.